默认 日期 大小 文件数 浏览量 最新下载 xml
guts磁力链接相关资源由用户搜索指令自动获取,结果来源于网络,本站不存储任何资料,亦不承担任何责任,请于24小时内删除,搜索到776个磁力,用时1ms。
    ... , "steam_api.dll1": 186560, "Guts and Glory.exe": 18183680, "Guts and Glory_Data": {"Mono ...
创建时间: 2018-11-26 17:52:53 大小:4.34 GB 文件数量:202 热度:9 最近下载:2025-02-14 01:54:03
    {"Back.jpg": 431841, "Front.jpg": 304557, "Front-mini.jpg": 31167, "audiochecker.log": 265, "Blood, Guts & Glory.log": 933, "Cryonic Temple - Blood, Guts & Glory.cue": 1283, "Cryonic Temple - Blood, Guts & Glory.flac": 366007117}
创建时间: 2018-11-27 00:37:23 大小:349.79 MB 文件数量:7 热度:9 最近下载:2025-02-18 10:21:02
    {"Cover.jpg": 46069, "09. Turn.mp3": 12227861, "04. Fallen.mp3": 12799425, "02. Holy War.mp3": 11554955, "06. The Sinner.mp3": 9071237, "01. Fairy Tales.mp3": 12101443, "11. Stand Alone.mp3": 11588399, "03. Eye for an Eye.mp3": 10837122, "08. Blow Your ...
创建时间: 2018-11-29 00:51:50 大小:120.03 MB 文件数量:12 热度:9 最近下载:2025-05-02 17:58:02
    ... .mp3": 6810155, "09 Heart N Guts.mp3": 7601143, "05 All You ...
创建时间: 2018-11-29 15:01:29 大小:76.07 MB 文件数量:11 热度:9 最近下载:2025-05-02 17:10:02
    {"Freedom.cue": 3497, "Freedom.log": 14254, "06 - L.U.V.flac": 20398660, "11 - We Hope.flac": 31579162, "03 - I Am What I Eat.flac": 21172069, "04 - Bubble (Part 1).flac": 17706684, "14 - Bad Side Of Sex.flac": 29130752, "01 - Introducing Mr. F.flac": ...
创建时间: 2018-12-10 17:48:49 大小:417.5 MB 文件数量:18 热度:9 最近下载:2025-08-23 13:37:03
    {"Sample": {"sample-one.man.army.s01e04.hdtv.xvid-momentum.avi": 5775482}, "www.Torrentday.com.txt": 513, "First Read This Guide.txt": 513, "one.man.army.s01e04.hdtv.xvid-momentum.avi": 367451698, "one.man.army.s01e04.hdtv.xvid-momentum.nfo": 265}
创建时间: 2018-12-17 14:28:11 大小:355.94 MB 文件数量:5 热度:9 最近下载:2025-04-03 22:57:02
    ... .flac": 21554328, "A Radio With Guts.cue": 2475, "02 - Welcome ... 21313151, "04 - A Radio With Guts.flac": 22628900, "14 - A Letter ... 20779133, "Input - A Radio With Guts.log": 6208, "Input - A Radio ... With Guts.m3u": 979, "03 - The World ...
创建时间: 2018-12-18 22:33:22 大小:319.95 MB 文件数量:19 热度:9 最近下载:2024-12-16 02:09:02
    ... Parts.avi": 488581120, "Blood and Guts - A History of Surgery - ... Faces.avi": 488583168, "Blood and Guts - A History of Surgery - ... Brain.avi": 488585216, "Blood and Guts - A History of Surgery - ... Hearts.avi": 488579072, "Blood and Guts - A History of Surgery - ...
创建时间: 2018-12-19 05:10:44 大小:2.36 GB 文件数量:5 热度:9 最近下载:2024-12-30 04:36:03
    {"plaza.nfo": 4137, "plaza-guts.v2.0.iso": 4478468096}
创建时间: 2018-12-19 09:47:58 大小:4.17 GB 文件数量:2 热度:9 最近下载:2024-10-09 10:25:01
    {"cover.jpg": 165366, "09 - Brain Food.mp3": 3473702, "10 - Zombie Love.mp3": 5898074, "05 - Pumpkin King.mp3": 7716196, "06 - Big Boss Man.mp3": 7699269, "03 - Hell Block 13.mp3": 6131295, "04 - Worm Hole Hooker.mp3": 6289284, "07 - Lil' Grave Robber.mp3 ...
创建时间: 2018-12-20 04:14:47 大小:64.24 MB 文件数量:14 热度:9 最近下载:2025-08-03 15:06:03
    {"12 Overdrive.m4a": 34033299, "08 Steel Town.m4a": 32920082, "01 Born To Kill.m4a": 36321201, "04 Raise The Flag.m4a": 36841449, "10 Get Busy Livin'.m4a": 36653403, "05 Bottom Of The Well.m4a": 41995264, "02 No Way But The Hard Way.m4a": 35810926, "03 ...
创建时间: 2018-12-20 13:20:23 大小:587.81 MB 文件数量:18 热度:9 最近下载:2025-04-03 23:19:02
    {"64191_01_hd.mp4": 651133443, "64191_02_hd.mp4": 890321312, "64191_03_hd.mp4": 735145890, "64191_04_hd.mp4": 1059005117}
创建时间: 2018-12-20 20:40:15 大小:3.11 GB 文件数量:4 热度:9 最近下载:2023-02-18 07:10:01
    {"12 Overdrive.mp3": 8116282, "08 Steel Town.mp3": 7592788, "14 Loaded Gun.mp3": 6815385, "01 Born To Kill.mp3": 8786064, "18 Devil's Child.mp3": 5333723, "04 Raise The Flag.mp3": 8532156, "09 Chewin' The Fat.mp3": 7702508, "10 Get Busy Livin'.mp3": ...
创建时间: 2018-12-24 05:34:02 大小:139.02 MB 文件数量:18 热度:9 最近下载:2025-04-04 00:38:03
    {"Dorian Yates - Blood & Guts.avi": 935221248, "Dorian Yates - Bonus (Grand Prix of England 1994).avi": 222060544}
创建时间: 2018-12-24 12:53:25 大小:1.08 GB 文件数量:2 热度:9 最近下载:2024-12-27 20:55:03
    {"RARBG.com.txt": 34, "The.Loud.House.S01E07.Driving.Miss.HazyNo.Guts.No.Glori.1080p.WEB-DL.AAC2.0.H.264-iT00NZ.srt": 35353, "The.Loud.House.S01E07.Driving.Miss.Hazy_No.Guts.No.Glori.1080p.WEB-DL.AAC2.0.H.264-iT00NZ.mkv": 906047253}
创建时间: 2018-12-25 04:20:29 大小:864.11 MB 文件数量:3 热度:9 最近下载:2025-04-03 23:27:01
    {"cover.jpg": 88383, "22. Vespar - Monster.mp3": 8692406, "28. Défago - Ghosts.mp3": 5741613, "07. Gravedale High - Exhumed.mp3": 6836684, "15. Dr. Hell - Skeleton Dance.mp3": 9350710, "25. Schock - Make Them Scream.mp3": 2952800, "02. Buffo's Wake - Die ...
创建时间: 2018-12-25 04:53:25 大小:206.96 MB 文件数量:29 热度:9 最近下载:2025-09-15 16:41:09
    ... Breaking Bones.mp3": 1682700, "31 Guts Squishing.mp3": 3521184, "38 Limbs ... Crushing.mp3": 2313276, "42 Spattered Guts.mp3": 2193216, "19 Crunching Heads ... Blood.mp3": 2201568, "30 Bloody Guts in Blender.mp3": 1560552, "33 ...
创建时间: 2018-12-25 08:05:35 大小:107.95 MB 文件数量:51 热度:9 最近下载:2024-11-26 21:42:02
    {"12- Overdrive.mp3": 5747386, "08- Steel Town.mp3": 5845088, "01- Born To Kill.mp3": 6396590, "04- Raise The Flag.mp3": 6170648, "09- Chewin' The Fat.mp3": 5372709, "10- Get Busy Livin'.mp3": 6528542, "06- White Line Fever.mp3": 5652292, "05- Bottom Of ...
创建时间: 2019-01-01 00:46:40 大小:78.61 MB 文件数量:13 热度:9 最近下载:2025-04-03 23:40:02
    ... ].nfo": 1638, "Blood.Guts.Bullets.and.Octane.1998.[Cover ... Sxales].jpg": 142515, "Blood.Guts.Bullets.and.Octane.1998.[DvdRip ... Sxales].avi": 1465780224, "Blood.Guts.Bullets.and.Octane.1998.[DvdRip ... Sxales].idx": 143962, "Blood.Guts.Bullets.and.Octane.1998.[DvdRip ...
创建时间: 2019-01-05 04:43:24 大小:1.37 GB 文件数量:5 热度:9 最近下载:2025-09-15 17:52:08
    {"+++ The Guts - Women at Work - The ガッツ 01 ★Uncensored★ [EngSub] HD720p.mp4": 190856308, "+++ The Guts - Women at Work - The ガッツ 02 ★Uncensored★ [EngSub] HD720p.mp4": 194289907}
创建时间: 2019-02-05 15:06:42 大小:367.3 MB 文件数量:2 热度:9 最近下载:2024-12-19 20:57:03